31/05/2011,00:00:14,   0.0,  0.0,  219, +5.9,  84.3,    0.4,  +12.4,  +13.5,   +5.3,+1100.00,04
31/05/2011,00:00:32,   0.0,  0.0,  176, +5.9,  84.3,    0.2,  +12.4,  +13.4,   +5.2,+1100.00,02
31/05/2011,00:00:50,   0.0,  0.0,  217, +5.9,  84.3,    0.1,  +12.4,  +13.4,   +5.3,+1100.00,FE
31/05/2011,00:01:08,   0.0,  0.0,  190, +5.9,  84.2,    0.4,  +12.5,  +13.3,   +5.3,+1100.00,04
31/05/2011,00:01:34,   0.0,  0.0,  219, +5.9,  84.1,    0.3,  +12.4,  +13.4,   +5.2,+1100.00,02
31/05/2011,00:01:52,   0.0,  0.0,  203, +5.9,  84.2,    0.4,  +12.5,  +13.3,   +5.3,+1100.00,FE
31/05/2011,00:02:10,   0.0,  0.0,  205, +5.9,  84.2,    0.3,  +12.4,  +13.4,   +5.3,+1100.00,FA
31/05/2011,00:02:35,   0.0,  0.0,  211, +5.8,  84.3,    0.3,  +12.5,  +13.4,   +5.3,+1100.00,FF
31/05/2011,00:02:53,   0.0,  0.0,  212, +5.9,  84.3,    0.4,  +12.4,  +13.4,   +5.3,+1100.00,01
31/05/2011,00:03:11,   0.0,  0.0,  212, +5.9,  84.4,    0.2,  +12.4,  +13.4,   +5.3,+1100.00,FB
31/05/2011,00:03:29,   0.0,  0.0,  226, +5.9,  84.4,    0.4,  +12.4,  +13.4,   +5.3,+1100.00,0B
31/05/2011,00:03:55,   0.0,  0.0,  180, +5.9,  84.5,    0.4,  +12.5,  +13.3,   +5.3,+1100.00,0A
31/05/2011,00:04:13,   0.0,  0.0,  194, +5.8,  84.5,    0.4,  +12.3,  +13.5,   +5.2,+1100.00,08
31/05/2011,00:04:31,   0.0,  0.0,  228, +5.9,  84.6,    0.3,  +12.5,  +13.3,   +5.3,+1100.00,08
31/05/2011,00:04:49,   0.0,  0.0,  204, +5.9,  84.6,    0.4,  +12.5,  +13.4,   +5.3,+1100.00,0D
31/05/2011,00:05:14,   0.0,  0.0,  193, +5.9,  84.5,    0.2,  +12.4,  +13.4,   +5.3,+1100.00,09
31/05/2011,00:05:32,   0.0,  0.0,  241, +5.9,  84.6,    0.4,  +12.5,  +13.4,   +5.3,+1100.00,07
31/05/2011,00:05:50,   0.0,  0.0,  174, +5.8,  84.7,    0.2,  +12.3,  +13.5,   +5.2,+1100.00,08
31/05/2011,00:06:08,   0.0,  0.0,  204, +5.9,  84.7,    0.4,  +12.4,  +13.4,   +5.3,+1100.00,0A
31/05/2011,00:06:34,   0.0,  0.0,  219, +5.9,  84.7,    0.3,  +12.4,  +13.4,   +5.3,+1100.00,0E
31/05/2011,00:06:52,   0.0,  0.0,  181, +5.9,  84.8,    0.2,  +12.4,  +13.4,   +5.3,+1100.00,0C
31/05/2011,00:07:10,   0.0,  0.0,  187, +5.9,  84.8,    0.4,  +12.4,  +13.5,   +5.2,+1100.00,0F
31/05/2011,00:07:35,   0.0,  0.0,  202, +5.9,  84.8,    0.0,  +12.3,  +13.5,   +5.2,+1100.00,05
31/05/2011,00:07:53,   0.0,  0.0,  200, +5.9,  84.8,    0.3,  +12.4,  +13.4,   +5.3,+1100.00,07
31/05/2011,00:08:11,   0.0,  0.0,  203, +5.9,  84.8,    0.3,  +12.4,  +13.4,   +5.3,+1100.00,05
31/05/2011,00:08:29,   0.0,  0.0,  226, +5.9,  84.7,    0.2,  +12.4,  +13.4,   +5.3,+1100.00,11
31/05/2011,00:08:55,   0.0,  0.0,  204, +5.9,  84.7,    0.4,  +12.4,  +13.5,   +5.3,+1100.00,0F
31/05/2011,00:09:13,   0.0,  0.0,  231, +5.9,  84.7,    0.3,  +12.5,  +13.4,   +5.3,+1100.00,09
31/05/2011,00:09:31,   0.0,  0.0,  195, +5.8,  84.6,    0.4,  +12.5,  +13.4,   +5.3,+1100.00,11
31/05/2011,00:09:49,   0.0,  0.0,  212, +5.8,  84.6,    0.3,  +12.4,  +13.5,   +5.2,+1100.00,0E
31/05/2011,00:10:14,   0.0,  0.0,  201, +5.8,  84.6,    0.4,  +12.4,  +13.4,   +5.2,+1100.00,FC
31/05/2011,00:10:32,   0.0,  0.0,  236, +5.8,  84.7,    0.5,  +12.4,  +13.5,   +5.2,+1100.00,07
31/05/2011,00:10:50,   0.0,  0.0,  207, +5.8,  84.7,    0.2,  +12.4,  +13.4,   +5.2,+1100.00,01
31/05/2011,00:11:08,   0.0,  0.0,  204, +5.8,  84.8,    0.3,  +12.5,  +13.4,   +5.3,+1100.00,06
31/05/2011,00:11:34,   0.0,  0.0,  227, +5.8,  84.8,    0.2,  +12.5,  +13.4,   +5.3,+1100.00,09
31/05/2011,00:11:52,   0.0,  0.0,  189, +5.8,  84.9,    0.3,  +12.5,  +13.4,   +5.3,+1100.00,12
31/05/2011,00:12:10,   0.0,  0.0,  230, +5.8,  84.8,    0.3,  +12.5,  +13.4,   +5.3,+1100.00,FF
31/05/2011,00:12:35,   0.0,  0.0,  210, +5.8,  84.7,    0.2,  +12.3,  +13.5,   +5.2,+1100.00,00
31/05/2011,00:12:53,   0.0,  0.0,  194, +5.8,  84.8,    0.0,  +12.4,  +13.4,   +5.3,+1100.00,0B
31/05/2011,00:13:11,   0.0,  0.0,  208, +5.8,  84.8,    0.1,  +12.4,  +13.4,   +5.3,+1100.00,03
31/05/2011,00:13:29,   0.0,  0.0,  212, +5.8,  84.8,    0.0,  +12.4,  +13.5,   +5.2,+1100.00,06
31/05/2011,00:13:55,   0.0,  0.0,  224, +5.8,  84.8,    0.3,  +12.4,  +13.4,   +5.3,+1100.00,0B
31/05/2011,00:14:13,   0.0,  0.0,  211, +5.8,  84.7,    0.3,  +12.4,  +13.4,   +5.2,+1100.00,00
31/05/2011,00:14:31,   0.0,  0.0,  221, +5.8,  84.7,    0.3,  +12.4,  +13.4,   +5.3,+1100.00,02
31/05/2011,00:14:48,   0.0,  0.0,  197, +5.8,  84.7,    0.4,  +12.4,  +13.4,   +5.2,+1100.00,16
31/05/2011,00:15:14,   0.0,  0.0,  202, +5.8,  84.7,    0.4,  +12.5,  +13.3,   +5.3,+1100.00,04
31/05/2011,00:15:32,   0.0,  0.0,  204, +5.8,  84.7,    0.4,  +12.4,  +13.4,   +5.2,+1100.00,05
31/05/2011,00:15:50,   0.0,  0.0,  227, +5.8,  84.7,    0.3,  +12.3,  +13.5,   +5.2,+1100.00,09
31/05/2011,00:16:08,   0.0,  0.0,  226, +5.8,  84.7,    0.3,  +12.4,  +13.5,   +5.2,+1100.00,0D
31/05/2011,00:16:34,   0.0,  0.0,  207, +5.8,  84.7,    0.2,  +12.5,  +13.4,   +5.3,+1100.00,0B
31/05/2011,00:16:52,   0.0,  0.0,  244, +5.8,  84.7,    0.4,  +12.4,  +13.4,   +5.2,+1100.00,0C
31/05/2011,00:17:10,   0.0,  0.0,  226, +5.8,  84.7,    0.4,  +12.5,  +13.4,   +5.3,+1100.00,09
31/05/2011,00:17:35,   0.0,  0.0,  206, +5.8,  84.7,    0.4,  +12.5,  +13.4,   +5.3,+1100.00,0E
31/05/2011,00:17:53,   0.0,  0.0,  219, +5.8,  84.8,    0.2,  +12.3,  +13.5,   +5.2,+1100.00,0F
31/05/2011,00:18:11,   0.0,  0.0,  201, +5.8,  84.8,    0.3,  +12.4,  +13.4,   +5.2,+1100.00,02
31/05/2011,00:18:29,   0.0,  0.0,  222, +5.8,  84.8,    0.4,  +12.5,  +13.4,   +5.3,+1100.00,11
31/05/2011,00:18:55,   0.0,  0.0,  210, +5.8,  84.8,    0.2,  +12.4,  +13.5,   +5.2,+1100.00,0A
31/05/2011,00:19:13,   0.0,  0.0,  195, +5.8,  84.8,    0.2,  +12.4,  +13.4,   +5.2,+1100.00,10
31/05/2011,00:19:31,   0.0,  0.0,  217, +5.8,  84.8,    0.2,  +12.4,  +13.5,   +5.2,+1100.00,0C
31/05/2011,00:19:49,   0.0,  0.0,  202, +5.8,  84.8,    0.3,  +12.4,  +13.4,   +5.3,+1100.00,10
31/05/2011,00:20:14,   0.0,  0.0,  196, +5.8,  84.8,    0.4,  +12.5,  +13.4,   +5.2,+1100.00,0D
31/05/2011,00:20:32,   0.0,  0.0,  193, +5.8,  84.8,    0.4,  +12.4,  +13.4,   +5.2,+1100.00,09
31/05/2011,00:20:50,   0.0,  0.0,  196, +5.8,  84.8,    0.2,  +12.4,  +13.4,   +5.2,+1100.00,0A
31/05/2011,00:21:08,   0.0,  0.0,  205, +5.8,  84.8,    0.5,  +12.4,  +13.4,   +5.2,+1100.00,08
31/05/2011,00:21:34,   0.0,  0.0,  197, +5.8,  84.8,    0.3,  +12.4,  +13.5,   +5.2,+1100.00,10
31/05/2011,00:21:52,   0.0,  0.0,  194, +5.8,  84.8,    0.3,  +12.5,  +13.4,   +5.2,+1100.00,0D
31/05/2011,00:22:10,   0.0,  0.0,  203, +5.8,  84.8,    0.3,  +12.4,  +13.5,   +5.2,+1100.00,FF
31/05/2011,00:22:35,   0.0,  0.0,  210, +5.8,  84.9,    0.4,  +12.5,  +13.4,   +5.2,+1100.00,06
31/05/2011,00:22:53,   0.0,  0.0,  200, +5.8,  84.9,    0.4,  +12.6,  +13.4,   +5.2,+1100.00,06
31/05/2011,00:23:11,   0.0,  0.0,  197, +5.7,  84.9,    0.3,  +12.5,  +13.4,   +5.2,+1100.00,0D
31/05/2011,00:23:29,   0.0,  0.0,  217, +5.8,  85.0,    0.5,  +12.4,  +13.4,   +5.1,+1100.00,08
31/05/2011,00:23:55,   0.0,  0.0,  180, +5.8,  85.0,    0.4,  +12.5,  +13.4,   +5.2,+1100.00,07
31/05/2011,00:24:13,   0.0,  0.4,  193, +5.8,  85.0,    0.4,  +12.4,  +13.4,   +5.2,+1100.00,09
31/05/2011,00:24:31,   0.0,  1.4,  215, +5.8,  85.0,    0.4,  +12.5,  +13.4,   +5.2,+1100.00,06
31/05/2011,00:24:48,   0.0,  1.9,  209, +5.8,  84.8,    0.4,  +12.5,  +13.4,   +5.2,+1100.00,1D
31/05/2011,00:25:14,   0.0,  1.4,  227, +5.7,  84.9,    0.5,  +12.5,  +13.4,   +5.2,+1100.00,13
31/05/2011,00:25:32,   0.0,  1.0,  227, +5.7,  85.0,    0.4,  +12.4,  +13.5,   +5.1,+1100.00,05
31/05/2011,00:25:50,   0.0,  0.0,  202, +5.8,  85.0,    0.2,  +12.4,  +13.4,   +5.2,+1100.00,FC
31/05/2011,00:26:08,   0.0,  1.3,  205, +5.7,  85.1,    0.4,  +12.4,  +13.5,   +5.1,+1100.00,09
31/05/2011,00:26:34,   0.0,  1.2,  204, +5.7,  85.0,    0.2,  +12.5,  +13.4,   +5.1,+1100.00,03
31/05/2011,00:26:52,   0.0,  0.8,  201, +5.7,  85.0,    0.1,  +12.4,  +13.4,   +5.2,+1100.00,04
31/05/2011,00:27:10,   0.0,  1.3,  199, +5.7,  85.0,    0.4,  +12.5,  +13.4,   +5.2,+1100.00,0F
31/05/2011,00:27:28,   0.0,  1.7,  216, +5.8,  85.1,    0.2,  +12.4,  +13.5,   +5.1,+1100.00,11
31/05/2011,00:27:54,   0.0,  1.4,  205, +5.8,  85.2,    0.1,  +12.3,  +13.5,   +5.1,+1100.00,0A
31/05/2011,00:28:12,   0.0,  2.8,  236, +5.7,  85.2,    0.3,  +12.5,  +13.4,   +5.2,+1100.00,11
31/05/2011,00:28:30,   0.0,  1.6,  212, +5.7,  85.3,    0.3,  +12.4,  +13.4,   +5.1,+1100.00,07
31/05/2011,00:28:55,   0.0,  2.1,  216, +5.8,  85.2,    0.4,  +12.4,  +13.5,   +5.1,+1100.00,10
31/05/2011,00:29:13,   0.0,  0.9,  204, +5.7,  85.3,    0.4,  +12.4,  +13.4,   +5.1,+1100.00,0D
31/05/2011,00:29:31,   0.0,  1.3,  209, +5.7,  85.3,    0.3,  +12.4,  +13.4,   +5.1,+1100.00,0C
31/05/2011,00:29:49,   0.0,  2.0,  248, +5.7,  85.1,    0.4,  +12.5,  +13.4,   +5.1,+1100.00,16
31/05/2011,00:30:15,   0.0,  1.8,  213, +5.7,  85.1,    0.4,  +12.4,  +13.5,   +5.1,+1100.00,06
31/05/2011,00:30:33,   0.0,  1.0,  200, +5.7,  85.2,    0.3,  +12.5,  +13.4,   +5.1,+1100.00,FA
31/05/2011,00:30:51,   0.0,  1.2,  238, +5.7,  85.2,    0.3,  +12.4,  +13.5,   +5.1,+1100.00,07
31/05/2011,00:31:08,   0.0,  0.3,  214, +5.7,  85.2,    0.3,  +12.4,  +13.4,   +5.1,+1100.00,03
31/05/2011,00:31:34,   0.0,  0.0,  233, +5.8,  85.2,    0.3,  +12.4,  +13.5,   +5.1,+1100.00,02
31/05/2011,00:31:52,   0.0,  0.0,  210, +5.7,  85.2,    0.5,  +12.4,  +13.5,   +5.1,+1100.00,FE
31/05/2011,00:32:10,   0.0,  0.0,  227, +5.7,  85.2,    0.1,  +12.4,  +13.4,   +5.1,+1100.00,FC
31/05/2011,00:32:28,   0.0,  1.5,  225, +5.7,  85.3,    0.5,  +12.4,  +13.4,   +5.1,+1100.00,0E
31/05/2011,00:32:54,   0.0,  1.1,  188, +5.7,  85.4,    0.2,  +12.5,  +13.4,   +5.1,+1100.00,10
31/05/2011,00:33:12,   0.0,  1.5,  197, +5.7,  85.4,    0.1,  +12.4,  +13.4,   +5.1,+1100.00,0D
31/05/2011,00:33:30,   0.0,  2.6,  211, +5.7,  85.3,    0.4,  +12.4,  +13.4,   +5.1,+1100.00,04
31/05/2011,00:33:48,   0.0,  2.2,  217, +5.7,  85.3,    0.4,  +12.4,  +13.5,   +5.1,+1100.00,10
31/05/2011,00:34:14,   0.0,  1.9,  210, +5.7,  85.3,    0.2,  +12.4,  +13.5,   +5.1,+1100.00,07
31/05/2011,00:34:32,   0.0,  1.4,  225, +5.7,  85.3,    0.3,  +12.4,  +13.4,   +5.1,+1100.00,08
31/05/2011,00:34:50,   0.0,  1.6,  224, +5.7,  85.3,    0.2,  +12.4,  +13.5,   +5.1,+1100.00,09
31/05/2011,00:35:08,   0.0,  3.0,  223, +5.7,  85.4,    0.3,  +12.4,  +13.5,   +5.1,+1100.00,0A
31/05/2011,00:35:34,   0.0,  2.1,  231, +5.7,  85.4,    0.2,  +12.4,  +13.4,   +5.1,+1100.00,06
31/05/2011,00:35:52,   0.0,  2.0,  202, +5.7,  85.6,    0.3,  +12.4,  +13.4,   +5.1,+1100.00,06
31/05/2011,00:36:10,   0.0,  1.7,  211, +5.7,  85.5,    0.3,  +12.4,  +13.4,   +5.1,+1100.00,06
31/05/2011,00:36:35,   0.0,  0.9,  219, +5.7,  85.4,    0.4,  +12.4,  +13.4,   +5.1,+1100.00,16
31/05/2011,00:36:53,   0.0,  1.7,  194, +5.7,  85.5,    0.4,  +12.3,  +13.5,   +5.1,+1100.00,18
31/05/2011,00:37:11,   0.0,  1.6,  211, +5.7,  85.5,    0.3,  +12.4,  +13.4,   +5.1,+1100.00,07
31/05/2011,00:37:29,   0.0,  2.1,  197, +5.7,  85.5,    0.4,  +12.4,  +13.4,   +5.2,+1100.00,1B
31/05/2011,00:37:55,   0.0,  1.3,  213, +5.7,  85.5,    0.4,  +12.4,  +13.5,   +5.1,+1100.00,10
31/05/2011,00:38:13,   0.0,  1.6,  181, +5.7,  85.4,    0.4,  +12.4,  +13.4,   +5.2,+1100.00,11
31/05/2011,00:38:31,   0.0,  1.3,  206, +5.7,  85.4,    0.3,  +12.4,  +13.4,   +5.2,+1100.00,0B
31/05/2011,00:38:48,   0.0,  2.2,  212, +5.7,  85.4,    0.3,  +12.5,  +13.4,   +5.2,+1100.00,11
31/05/2011,00:39:14,   0.0,  1.7,  199, +5.8,  85.4,    0.4,  +12.4,  +13.5,   +5.1,+1100.00,1E
31/05/2011,00:39:32,   0.0,  1.4,  207, +5.7,  85.3,    0.3,  +12.5,  +13.4,   +5.2,+1100.00,0F
31/05/2011,00:39:50,   0.0,  1.1,  181, +5.7,  85.2,    0.3,  +12.4,  +13.4,   +5.2,+1100.00,0B
31/05/2011,00:40:08,   0.0,  1.9,  205, +5.7,  85.3,    0.3,  +12.5,  +13.4,   +5.2,+1100.00,0D
31/05/2011,00:40:34,   0.0,  1.3,  188, +5.7,  85.2,    0.2,  +12.4,  +13.4,   +5.1,+1100.00,0C
31/05/2011,00:40:52,   0.0,  2.2,  223, +5.7,  85.1,    0.3,  +12.5,  +13.4,   +5.2,+1100.00,04
31/05/2011,00:41:10,   0.0,  2.9,  225, +5.7,  85.1,    0.3,  +12.4,  +13.4,   +5.2,+1100.00,07
31/05/2011,00:41:28,   0.0,  2.0,  203, +5.7,  85.1,    0.4,  +12.5,  +13.4,   +5.2,+1100.00,05
31/05/2011,00:41:54,   0.0,  2.5,  190, +5.7,  85.2,    0.2,  +12.5,  +13.4,   +5.2,+1100.00,0D
31/05/2011,00:42:12,   0.0,  1.5,  193, +5.7,  85.2,    0.4,  +12.4,  +13.4,   +5.2,+1100.00,0B
31/05/2011,00:42:30,   0.0,  2.3,  208, +5.7,  85.2,    0.3,  +12.5,  +13.3,   +5.2,+1100.00,06
31/05/2011,00:42:55,   0.0,  1.6,  209, +5.7,  85.4,    0.4,  +12.4,  +13.5,   +5.2,+1100.00,14
31/05/2011,00:43:13,   0.0,  1.9,  198, +5.7,  85.4,    0.4,  +12.5,  +13.3,   +5.2,+1100.00,18
31/05/2011,00:43:31,   0.0,  1.6,  207, +5.7,  85.4,    0.3,  +12.3,  +13.5,   +5.2,+1100.00,0B
31/05/2011,00:43:49,   0.0,  0.2,  203, +5.7,  85.4,    0.0,  +12.4,  +13.5,   +5.2,+1100.00,09
31/05/2011,00:44:15,   0.0,  1.7,  190, +5.7,  85.4,    0.3,  +12.5,  +13.4,   +5.2,+1100.00,11
31/05/2011,00:44:33,   0.0,  2.2,  210, +5.7,  85.3,    0.3,  +12.4,  +13.4,   +5.1,+1100.00,03
31/05/2011,00:44:51,   0.0,  1.5,  200, +5.7,  85.3,    0.4,  +12.4,  +13.4,   +5.2,+1100.00,06
31/05/2011,00:45:09,   0.0,  2.1,  212, +5.8,  85.3,    0.1,  +12.4,  +13.5,   +5.2,+1100.00,09
31/05/2011,00:45:34,   0.0,  2.3,  213, +5.7,  85.3,    0.4,  +12.4,  +13.4,   +5.2,+1100.00,0B
31/05/2011,00:45:52,   0.0,  1.5,  206, +5.7,  85.3,    0.4,  +12.5,  +13.4,   +5.2,+1100.00,0F
31/05/2011,00:46:10,   0.0,  1.5,  199, +5.7,  85.3,    0.2,  +12.4,  +13.4,   +5.2,+1100.00,12
31/05/2011,00:46:28,   0.0,  2.7,  219, +5.7,  85.3,    0.4,  +12.4,  +13.4,   +5.1,+1100.00,18
31/05/2011,00:46:54,   0.0,  1.7,  193, +5.7,  85.3,    0.2,  +12.4,  +13.4,   +5.1,+1100.00,15
31/05/2011,00:47:12,   0.0,  1.7,  207, +5.7,  85.3,    0.3,  +12.5,  +13.3,   +5.2,+1100.00,0E
31/05/2011,00:47:30,   0.0,  2.0,  210, +5.7,  85.4,    0.4,  +12.5,  +13.4,   +5.2,+1100.00,05
31/05/2011,00:47:48,   0.0,  1.4,  205, +5.7,  85.4,    0.4,  +12.5,  +13.4,   +5.1,+1100.00,14
31/05/2011,00:48:14,   0.0,  0.0,  208, +5.7,  85.4,    0.0,  +12.5,  +13.4,   +5.2,+1100.00,09
31/05/2011,00:48:32,   0.0,  0.0,  197, +5.7,  85.4,    0.3,  +12.5,  +13.4,   +5.2,+1100.00,13
31/05/2011,00:48:50,   0.0,  0.0,  189, +5.7,  85.4,    0.4,  +12.4,  +13.4,   +5.2,+1100.00,14
31/05/2011,00:49:15,   0.0,  0.0,  227, +5.7,  85.5,    0.5,  +12.5,  +13.4,   +5.1,+1100.00,11
31/05/2011,00:49:33,   0.0,  2.4,  186, +5.7,  85.5,    0.4,  +12.4,  +13.4,   +5.1,+1100.00,19
31/05/2011,00:49:51,   0.0,  1.3,  195, +5.7,  85.5,    0.3,  +12.4,  +13.4,   +5.1,+1100.00,16
31/05/2011,00:50:09,   0.0,  1.6,  202, +5.7,  85.5,    0.2,  +12.4,  +13.4,   +5.1,+1100.00,08
31/05/2011,00:50:35,   0.0,  1.6,  204, +5.7,  85.5,    0.4,  +12.5,  +13.4,   +5.2,+1100.00,0D
31/05/2011,00:50:53,   0.0,  2.8,  201, +5.7,  85.5,    0.3,  +12.4,  +13.4,   +5.1,+1100.00,0A
31/05/2011,00:51:11,   0.0,  1.8,  207, +5.7,  85.6,    0.4,  +12.6,  +13.3,   +5.2,+1100.00,0E
31/05/2011,00:51:29,   0.0,  0.7,  191, +5.7,  85.6,    0.3,  +12.5,  +13.4,   +5.2,+1100.00,16
31/05/2011,00:51:54,   0.0,  1.5,  226, +5.7,  85.6,    0.4,  +12.4,  +13.5,   +5.1,+1100.00,12
31/05/2011,00:52:12,   0.0,  1.8,  194, +5.7,  85.7,    0.3,  +12.4,  +13.5,   +5.1,+1100.00,14
31/05/2011,00:52:30,   0.0,  1.2,  215, +5.7,  85.7,    0.2,  +12.5,  +13.3,   +5.2,+1100.00,07
31/05/2011,00:52:48,   0.0,  1.2,  224, +5.7,  85.6,    0.2,  +12.4,  +13.4,   +5.1,+1100.00,0E
31/05/2011,00:53:14,   0.0,  2.1,  215, +5.7,  85.5,    0.2,  +12.4,  +13.4,   +5.1,+1100.00,07
31/05/2011,00:53:32,   0.0,  1.8,  210, +5.7,  85.6,    0.3,  +12.5,  +13.4,   +5.1,+1100.00,0B
31/05/2011,00:53:50,   0.0,  1.8,  206, +5.7,  85.6,    0.3,  +12.4,  +13.5,   +5.0,+1100.00,0F
31/05/2011,00:54:15,   0.0,  2.1,  210, +5.7,  85.6,    0.4,  +12.5,  +13.4,   +5.1,+1100.00,08
31/05/2011,00:54:33,   0.0,  2.2,  189, +5.7,  85.6,    0.4,  +12.5,  +13.4,   +5.1,+1100.00,18
31/05/2011,00:54:51,   0.0,  1.9,  208, +5.7,  85.6,    0.2,  +12.5,  +13.4,   +5.2,+1100.00,15
31/05/2011,00:55:09,   0.0,  2.0,  217, +5.7,  85.8,    0.3,  +12.5,  +13.4,   +5.1,+1100.00,13
31/05/2011,00:55:35,   0.0,  1.6,  200, +5.7,  85.9,    0.2,  +12.4,  +13.5,   +5.1,+1100.00,0F
31/05/2011,00:55:53,   0.0,  1.8,  242, +5.7,  85.9,    0.3,  +12.5,  +13.4,   +5.1,+1100.00,18
31/05/2011,00:56:11,   0.0,  1.1,  192, +5.7,  85.9,    0.3,  +12.3,  +13.5,   +5.0,+1100.00,0E
31/05/2011,00:56:29,   0.0,  2.0,  216, +5.7,  85.9,    0.4,  +12.4,  +13.4,   +5.1,+1100.00,16
31/05/2011,00:56:54,   0.0,  1.6,  194, +5.7,  85.9,    0.5,  +12.5,  +13.4,   +5.1,+1100.00,20
31/05/2011,00:57:12,   0.0,  1.6,  234, +5.7,  85.9,    0.3,  +12.4,  +13.4,   +5.1,+1100.00,13
31/05/2011,00:57:30,   0.0,  1.8,  202, +5.7,  85.9,    0.2,  +12.3,  +13.5,   +5.1,+1100.00,0F
31/05/2011,00:57:48,   0.0,  1.7,  198, +5.7,  85.9,    0.4,  +12.4,  +13.4,   +5.1,+1100.00,27
31/05/2011,00:58:14,   0.0,  2.5,  214, +5.7,  85.9,    0.3,  +12.6,  +13.4,   +5.1,+1100.00,16
31/05/2011,00:58:32,   0.0,  1.3,  192, +5.7,  85.9,    0.3,  +12.5,  +13.4,   +5.1,+1100.00,17
31/05/2011,00:58:50,   0.0,  2.6,  214, +5.7,  85.9,    0.4,  +12.5,  +13.4,   +5.1,+1100.00,17
31/05/2011,00:59:15,   0.0,  2.2,  209, +5.7,  85.9,    0.4,  +12.5,  +13.3,   +5.1,+1100.00,18
31/05/2011,00:59:33,   0.0,  3.2,  203, +5.7,  86.0,    0.4,  +12.5,  +13.4,   +5.1,+1100.00,0C
31/05/2011,00:59:51,   0.0,  2.3,  223, +5.7,  86.0,    0.3,  +12.5,  +13.4,   +5.1,+1100.00,0D
31/05/2011,01:00:09,   0.0,  1.9,  196, +5.7,  86.0,    0.3,  +12.4,  +13.4,   +5.1,+1100.00,10
31/05/2011,01:00:35,   0.0,  1.4,  176, +5.7,  86.1,    0.4,  +12.5,  +13.4,   +5.1,+1100.00,0B
31/05/2011,01:00:53,   0.0,  1.7,  204, +5.7,  86.1,    0.4,  +12.4,  +13.4,   +5.0,+1100.00,04
31/05/2011,01:01:11,   0.0,  2.2,  196, +5.7,  86.1,    0.3,  +12.5,  +13.4,   +5.1,+1100.00,06
31/05/2011,01:01:29,   0.0,  2.6,  205, +5.7,  86.1,    0.3,  +12.6,  +13.3,   +5.1,+1100.00,0A
31/05/2011,01:01:54,   0.0,  2.1,  246, +5.7,  86.3,    0.4,  +12.4,  +13.5,   +5.1,+1100.00,0B
31/05/2011,01:02:12,   0.0,  2.1,  205, +5.7,  86.3,    0.4,  +12.5,  +13.4,   +5.1,+1100.00,01
31/05/2011,01:02:30,   0.0,  2.6,  192, +5.7,  86.4,    0.3,  +12.4,  +13.4,   +5.1,+1100.00,0A
31/05/2011,01:02:48,   0.0,  2.6,  228, +5.7,  86.4,    0.3,  +12.6,  +13.3,   +5.2,+1100.00,15
31/05/2011,01:03:14,   0.0,  2.2,  213, +5.7,  86.3,    0.3,  +12.4,  +13.5,   +5.1,+1100.00,03
31/05/2011,01:03:32,   0.0,  1.7,  198, +5.7,  86.3,    0.3,  +12.6,  +13.3,   +5.2,+1100.00,14
31/05/2011,01:03:50,   0.0,  2.5,  195, +5.7,  86.3,    0.3,  +12.4,  +13.4,   +5.2,+1100.00,0F
31/05/2011,01:04:15,   0.0,  1.4,  203, +5.7,  86.3,    0.4,  +12.5,  +13.4,   +5.2,+1100.00,07
31/05/2011,01:04:33,   0.0,  1.5,  210, +5.7,  86.3,    0.5,  +12.4,  +13.4,   +5.2,+1100.00,06
31/05/2011,01:04:51,   0.0,  1.1,  203, +5.7,  86.3,    0.2,  +12.5,  +13.4,   +5.2,+1100.00,02
31/05/2011,01:05:09,   0.0,  2.3,  220, +5.8,  86.3,    0.2,  +12.5,  +13.4,   +5.2,+1100.00,09
31/05/2011,01:05:35,   0.0,  1.7,  219, +5.7,  86.4,    0.4,  +12.4,  +13.4,   +5.2,+1100.00,14
31/05/2011,01:05:53,   0.0,  1.2,  203, +5.7,  86.4,    0.4,  +12.4,  +13.5,   +5.2,+1100.00,09
31/05/2011,01:06:11,   0.0,  2.3,  182, +5.7,  86.4,    0.3,  +12.5,  +13.4,   +5.2,+1100.00,0B
31/05/2011,01:06:29,   0.0,  2.6,  206, +5.7,  86.4,    0.4,  +12.4,  +13.5,   +5.2,+1100.00,15
31/05/2011,01:06:54,   0.0,  1.7,  194, +5.8,  86.4,    0.1,  +12.4,  +13.5,   +5.2,+1100.00,17
31/05/2011,01:07:12,   0.0,  1.7,  204, +5.7,  86.5,    0.2,  +12.4,  +13.4,   +5.3,+1100.00,0B
31/05/2011,01:07:30,   0.0,  1.7,  227, +5.7,  86.5,    0.2,  +12.5,  +13.4,   +5.3,+1100.00,11
31/05/2011,01:07:48,   0.0,  1.9,  211, +5.7,  86.6,    0.2,  +12.5,  +13.4,   +5.3,+1100.00,16
31/05/2011,01:08:14,   0.0,  2.6,  235, +5.7,  86.7,    0.4,  +12.5,  +13.4,   +5.3,+1100.00,17
31/05/2011,01:08:32,   0.0,  2.7,  228, +5.7,  86.6,    0.2,  +12.5,  +13.4,   +5.4,+1100.00,18
31/05/2011,01:08:50,   0.0,  1.3,  231, +5.8,  86.6,    0.2,  +12.4,  +13.4,   +5.3,+1100.00,0C
31/05/2011,01:09:08,   0.0,  1.8,  215, +5.7,  86.7,    0.4,  +12.5,  +13.4,   +5.3,+1100.00,1A
31/05/2011,01:09:34,   0.0,  0.0,  189, +5.8,  86.6,    0.3,  +12.5,  +13.4,   +5.4,+1100.00,1A
31/05/2011,01:09:52,   0.0,  1.8,  212, +5.8,  86.6,    0.4,  +12.5,  +13.4,   +5.4,+1100.00,17
31/05/2011,01:10:10,   0.0,  2.3,  209, +5.8,  86.6,    0.3,  +12.4,  +13.4,   +5.4,+1100.00,09
31/05/2011,01:10:35,   0.0,  3.2,  200, +5.8,  86.6,    0.4,  +12.4,  +13.4,   +5.4,+1100.00,08
31/05/2011,01:10:53,   0.0,  2.2,  203, +5.8,  86.7,    0.4,  +12.4,  +13.4,   +5.3,+1100.00,0A
31/05/2011,01:11:11,   0.0,  1.5,  210, +5.8,  86.6,    0.3,  +12.5,  +13.4,   +5.4,+1100.00,05
31/05/2011,01:11:29,   0.0,  1.6,  200, +5.8,  86.6,    0.4,  +12.4,  +13.4,   +5.4,+1100.00,0E
31/05/2011,01:11:55,   0.0,  1.6,  214, +5.8,  86.5,    0.4,  +12.5,  +13.5,   +5.4,+1100.00,13
31/05/2011,01:12:13,   0.0,  2.6,  209, +5.8,  86.5,    0.3,  +12.5,  +13.4,   +5.4,+1100.00,11
31/05/2011,01:12:31,   0.0,  2.1,  208, +5.8,  86.5,    0.4,  +12.5,  +13.3,   +5.5,+1100.00,0C
31/05/2011,01:12:49,   0.0,  2.7,  180, +5.8,  86.5,    0.3,  +12.5,  +13.4,   +5.4,+1100.00,19
31/05/2011,01:13:15,   0.0,  2.3,  209, +5.8,  86.5,    0.3,  +12.4,  +13.4,   +5.4,+1100.00,10
31/05/2011,01:13:33,   0.0,  3.3,  213, +5.8,  86.5,    0.2,  +12.5,  +13.4,   +5.4,+1100.00,0C
31/05/2011,01:13:51,   0.0,  2.0,  198, +5.8,  86.5,    0.2,  +12.5,  +13.4,   +5.4,+1100.00,14
31/05/2011,01:14:09,   0.0,  1.9,  225, +5.8,  86.6,    0.3,  +12.5,  +13.4,   +5.4,+1100.00,19
31/05/2011,01:14:35,   0.0,  2.3,  207, +5.8,  86.6,    0.2,  +12.5,  +13.4,   +5.4,+1100.00,12
31/05/2011,01:14:53,   0.0,  1.6,  198, +5.8,  86.6,    0.3,  +12.5,  +13.4,   +5.4,+1100.00,1E
31/05/2011,01:15:11,   0.0,  1.8,  203, +5.8,  86.5,    0.2,  +12.5,  +13.4,   +5.4,+1100.00,0C
31/05/2011,01:15:29,   0.0,  2.0,  213, +5.8,  86.5,    0.2,  +12.5,  +13.4,   +5.4,+1100.00,0F
31/05/2011,01:15:55,   0.0,  1.6,  199, +5.8,  86.5,    0.2,  +12.6,  +13.4,   +5.4,+1100.00,21
31/05/2011,01:16:13,   0.0,  2.0,  194, +5.8,  86.4,    0.3,  +12.5,  +13.4,   +5.4,+1100.00,11
31/05/2011,01:16:31,   0.0,  1.7,  214, +5.8,  86.5,    0.4,  +12.5,  +13.4,   +5.4,+1100.00,12
31/05/2011,01:16:49,   0.0,  3.1,  216, +5.8,  86.4,    0.4,  +12.6,  +13.3,   +5.4,+1100.00,18
31/05/2011,01:17:15,   0.0,  1.9,  200, +5.8,  86.5,    0.2,  +12.5,  +13.4,   +5.3,+1100.00,0F
31/05/2011,01:17:33,   0.0,  1.4,  214, +5.8,  86.5,    0.3,  +12.4,  +13.4,   +5.4,+1100.00,10
31/05/2011,01:17:51,   0.0,  1.2,  215, +5.8,  86.5,    0.5,  +12.5,  +13.3,   +5.4,+1100.00,11
31/05/2011,01:18:09,   0.0,  2.0,  212, +5.8,  86.6,    0.4,  +12.4,  +13.4,   +5.4,+1100.00,11
31/05/2011,01:18:35,   0.0,  1.7,  214, +5.8,  86.5,    0.3,  +12.5,  +13.4,   +5.4,+1100.00,17
31/05/2011,01:18:53,   0.0,  1.8,  222, +5.8,  86.5,    0.2,  +12.5,  +13.3,   +5.4,+1100.00,15
31/05/2011,01:19:11,   0.0,  2.2,  209, +5.8,  86.4,    0.4,  +12.4,  +13.5,   +5.3,+1100.00,11
31/05/2011,01:19:29,   0.0,  2.5,  191, +5.8,  86.4,    0.4,  +12.5,  +13.3,   +5.4,+1100.00,1D
31/05/2011,01:19:55,   0.0,  2.5,  185, +5.8,  86.4,    0.1,  +12.5,  +13.4,   +5.3,+1100.00,1C
31/05/2011,01:20:13,   0.0,  3.2,  198, +5.8,  86.4,    0.3,  +12.4,  +13.4,   +5.4,+1100.00,12
31/05/2011,01:20:31,   0.0,  2.3,  206, +5.8,  86.4,    0.3,  +12.5,  +13.4,   +5.4,+1100.00,09
31/05/2011,01:20:49,   0.0,  2.2,  222, +5.8,  86.5,    0.4,  +12.5,  +13.4,   +5.3,+1100.00,10
31/05/2011,01:21:15,   0.0,  1.3,  195, +5.8,  86.5,    0.2,  +12.5,  +13.4,   +5.3,+1100.00,11
31/05/2011,01:21:33,   0.0,  2.4,  244, +5.8,  86.4,    0.3,  +12.4,  +13.4,   +5.3,+1100.00,0D
31/05/2011,01:21:51,   0.0,  2.3,  233, +5.8,  86.4,    0.4,  +12.4,  +13.4,   +5.3,+1100.00,0B
31/05/2011,01:22:09,   0.0,  2.2,  209, +5.8,  86.4,    0.5,  +12.3,  +13.5,   +5.3,+1100.00,12